Temp
-15 -15 -15 -14 -14 -14 -14 -13 -13 -13 -13 -13 -13 -13 -12 -12 -12 -12 -12 -11 -10 -10 -11 -10 -10 -11 -11 -11 -11 -11 -11 -10 -11 -10 -10 -9 -9 -10 -10 -9 -10 -10 -9 -9 -9
-15 -15 -15 -15 -15 -14 -14 -14 -13 -13 -13 -13 -13 -13 -13 -13 -13 -13 -12 -11 -11 -11 -11 -10 -10 -11 -11 -11 -11 -11 -11 -11 -11 -11 -10 -10 -9 -10 -10 -9 -9 -10 -10 -10 -9
-16 -16 -15 -15 -15 -15 -15 -14 -14 -13 -13 -13 -13 -13 -13 -13 -13 -12 -12 -12 -11 -11 -11 -11 -11 -11 -11 -11 -11 -11 -10 -11 -11 -11 -10 -10 -9 -10 -10 -9 -9 -9 -9 -10 -9
-16 -16 -16 -15 -15 -15 -15 -15 -14 -14 -13 -13 -13 -13 -13 -13 -13 -12 -12 -12 -12 -11 -11 -11 -11 -11 -11 -10 -11 -11 -11 -12 -12 -12 -10 -10 -10 -10 -10 -9 -9 -10 -10 -10 -10
-16 -16 -16 -16 -15 -15 -15 -15 -14 -14 -13 -13 -12 -13 -13 -13 -12 -12 -12 -13 -12 -11 -12 -11 -12 -11 -11 -11 -11 -11 -11 -11 -12 -12 -11 -10 -11 -10 -10 -10 -10 -11 -10 -10 -10
-17 -17 -16 -16 -16 -16 -15 -15 -15 -14 -14 -13 -13 -12 -12 -13 -14 -13 -12 -13 -12 -12 -11 -12 -12 -12 -11 -11 -11 -11 -11 -11 -11 -12 -11 -10 -11 -10 -9 -10 -10 -10 -10 -10 -10
-18 -18 -18 -17 -16 -16 -16 -15 -15 -15 -14 -14 -13 -13 -12 -13 -13 -14 -14 -14 -13 -12 -12 -12 -12 -12 -11 -11 -11 -12 -11 -11 -12 -12 -11 -11 -11 -11 -10 -10 -10 -10 -10 -10 -10
-19 -19 -19 -19 -18 -17 -16 -16 -15 -15 -15 -14 -13 -13 -13 -12 -13 -14 -14 -13 -13 -13 -12 -12 -12 -12 -11 -11 -11 -11 -10 -11 -11 -11 -12 -12 -11 -11 -11 -11 -11 -11 -11 -11 -11
-22 -21 -20 -20 -19 -18 -18 -17 -16 -16 -15 -15 -14 -13 -13 -12 -13 -13 -14 -14 -13 -13 -13 -13 -12 -12 -12 -12 -11 -11 -11 -11 -11 -11 -11 -12 -12 -11 -11 -11 -11 -11 -11 -11 -11
-26 -25 -24 -22 -21 -20 -19 -18 -17 -16 -16 -16 -15 -14 -13 -13 -14 -14 -14 -14 -13 -13 -13 -13 -13 -12 -11 -11 -11 -11 -11 -11 -11 -11 -11 -11 -12 -11 -11 -11 -11 -11 -11 -11 -11
-26 -26 -26 -26 -24 -22 -22 -20 -19 -18 -17 -17 -15 -14 -14 -14 -14 -14 -14 -14 -14 -14 -14 -13 -13 -12 -12 -12 -11 -11 -11 -11 -11 -11 -11 -10 -11 -11 -11 -11 -11 -11 -11 -11 -11
-27 -27 -27 -27 -26 -25 -24 -24 -22 -21 -20 -19 -18 -17 -16 -14 -13 -14 -14 -14 -14 -14 -14 -13 -13 -12 -12 -12 -12 -12 -12 -11 -11 -11 -11 -11 -11 -11 -11 -11 -11 -11 -12 -12 -12
-27 -27 -27 -27 -26 -26 -26 -25 -24 -24 -22 -22 -21 -20 -19 -16 -15 -15 -14 -16 -15 -14 -14 -14 -13 -13 -13 -12 -12 -12 -12 -11 -11 -11 -11 -11 -11 -11 -11 -11 -12 -12 -12 -12 -12
-27 -27 -27 -27 -26 -26 -26 -25 -24 -24 -24 -23 -22 -21 -21 -18 -17 -16 -16 -15 -15 -15 -14 -14 -14 -14 -13 -13 -12 -12 -12 -12 -12 -12 -12 -12 -11 -11 -11 -11 -12 -12 -12 -12 -12
-27 -27 -27 -27 -26 -25 -25 -25 -24 -24 -24 -23 -23 -22 -21 -20 -19 -18 -17 -15 -15 -15 -15 -14 -14 -14 -14 -13 -13 -13 -12 -12 -13 -12 -12 -12 -12 -11 -11 -11 -12 -12 -12 -12 -12
-27 -27 -27 -27 -26 -25 -25 -24 -24 -24 -23 -23 -22 -22 -22 -21 -21 -20 -19 -17 -16 -15 -15 -15 -15 -16 -15 -14 -13 -13 -13 -13 -13 -13 -12 -12 -12 -12 -12 -12 -12 -12 -12 -12 -12
-27 -27 -27 -27 -26 -25 -25 -25 -24 -24 -23 -23 -22 -21 -21 -21 -21 -20 -20 -19 -17 -16 -15 -15 -16 -16 -16 -16 -15 -14 -14 -13 -13 -13 -12 -12 -12 -13 -12 -12 -12 -12 -12 -12 -12
-27 -27 -27 -27 -26 -25 -25 -24 -24 -24 -23 -22 -22 -21 -21 -21 -21 -20 -20 -20 -20 -18 -17 -15 -16 -16 -16 -16 -16 -15 -15 -14 -13 -13 -12 -12 -12 -12 -13 -13 -13 -13 -13 -12 -13
-27 -27 -26 -26 -26 -25 -25 -24 -24 -24 -23 -23 -22 -21 -21 -20 -21 -20 -20 -20 -19 -19 -19 -18 -17 -16 -16 -16 -16 -15 -15 -15 -14 -14 -13 -13 -12 -13 -13 -14 -13 -13 -13 -13 -13
-26 -26 -26 -26 -26 -26 -25 -25 -24 -24 -24 -23 -23 -22 -21 -21 -21 -21 -20 -20 -19 -19 -19 -18 -18 -17 -16 -16 -16 -15 -15 -15 -15 -15 -15 -14 -14 -14 -14 -14 -15 -15 -14 -14 -15
-26 -26 -26 -26 -26 -26 -25 -25 -24 -24 -24 -24 -23 -23 -22 -21 -22 -21 -21 -21 -20 -20 -19 -18 -18 -17 -17 -17 -17 -15 -15 -15 -15 -15 -15 -16 -15 -15 -15 -15 -15 -15 -15 -14 -14
-26 -26 -26 -26 -26 -25 -25 -25 -24 -24 -24 -24 -23 -23 -23 -22 -21 -21 -20 -20 -20 -20 -20 -19 -18 -18 -18 -17 -17 -16 -16 -16 -16 -15 -15 -15 -15 -15 -16 -16 -15 -15 -15 -15 -16
-26 -26 -26 -26 -25 -25 -25 -25 -24 -24 -24 -24 -23 -23 -23 -23 -22 -21 -21 -21 -20 -20 -20 -19 -19 -19 -18 -18 -17 -16 -16 -16 -16 -16 -15 -16 -16 -17 -16 -16 -16 -16 -16 -16 -17
-26 -26 -26 -25 -25 -25 -25 -26 -25 -24 -24 -24 -24 -23 -23 -22 -22 -21 -20 -21 -21 -20 -20 -20 -19 -19 -18 -17 -17 -17 -17 -17 -17 -17 -17 -17 -18 -18 -18 -17 -18 -18 -17 -18 -18
-26 -25 -25 -26 -25 -25 -25 -25 -25 -25 -24 -24 -24 -23 -23 -22 -22 -21 -21 -21 -21 -20 -20 -20 -20 -20 -19 -19 -19 -19 -18 -18 -17 -17 -17 -18 -19 -19 -18 -18 -18 -18 -19 -19 -19
-26 -26 -26 -25 -25 -25 -25 -25 -25 -25 -25 -23 -23 -23 -23 -22 -22 -22 -21 -21 -21 -21 -20 -20 -20 -20 -20 -20 -20 -20 -19 -18 -18 -18 -19 -19 -19 -20 -18 -18 -18 -19 -19 -19 -18
-26 -26 -26 -26 -26 -26 -25 -25 -25 -25 -24 -24 -24 -23 -23 -23 -22 -22 -21 -21 -21 -21 -21 -21 -20 -21 -20 -21 -20 -20 -20 -20 -20 -20 -20 -20 -20 -20 -19 -19 -19 -19 -19 -19 -19
Height
5679 5682 5685 5689 5692 5696 5704 5710 5715 5721 5726 5732 5738 5745 5751 5758 5765 5772 5779 5785 5791 5797 5802 5806 5811 5815 5820 5825 5831 5835 5843 5850 5855 5857 5859 5860 5863 5869 5871 5874 5876 5878 5879 5880 5882
5671 5674 5677 5679 5684 5688 5693 5700 5707 5711 5717 5723 5730 5737 5744 5751 5756 5765 5773 5778 5784 5791 5796 5801 5806 5812 5816 5821 5828 5830 5839 5846 5847 5848 5854 5856 5861 5866 5868 5871 5873 5876 5877 5879 5880
5661 5664 5667 5670 5674 5680 5684 5690 5697 5702 5708 5714 5720 5727 5736 5741 5748 5757 5766 5771 5777 5783 5790 5794 5801 5805 5811 5814 5820 5824 5835 5841 5844 5843 5852 5857 5860 5861 5865 5868 5870 5874 5874 5877 5878
5650 5653 5656 5659 5663 5669 5675 5681 5687 5693 5699 5704 5710 5717 5725 5735 5743 5750 5758 5762 5768 5777 5783 5788 5794 5799 5803 5810 5815 5822 5830 5836 5841 5841 5848 5853 5856 5857 5862 5865 5868 5871 5872 5874 5877
5638 5640 5643 5647 5651 5656 5663 5670 5677 5683 5689 5695 5701 5709 5717 5726 5736 5743 5750 5754 5760 5769 5777 5781 5788 5795 5799 5806 5811 5816 5823 5831 5835 5837 5842 5846 5852 5852 5858 5862 5865 5867 5868 5872 5874
5622 5625 5629 5633 5637 5643 5650 5657 5665 5673 5680 5687 5694 5700 5708 5717 5725 5733 5740 5748 5753 5762 5770 5775 5781 5789 5794 5799 5804 5810 5817 5823 5831 5833 5836 5842 5849 5848 5855 5860 5862 5862 5865 5869 5870
5605 5609 5612 5617 5622 5628 5636 5645 5652 5660 5668 5678 5685 5691 5699 5708 5717 5725 5731 5740 5746 5754 5762 5767 5774 5782 5789 5795 5799 5804 5810 5815 5821 5826 5829 5836 5842 5845 5850 5855 5858 5859 5862 5864 5866
5587 5591 5595 5600 5606 5613 5621 5630 5639 5648 5657 5664 5672 5681 5690 5698 5708 5719 5725 5732 5740 5746 5753 5760 5767 5774 5780 5787 5792 5796 5803 5806 5811 5818 5822 5831 5839 5841 5846 5848 5853 5855 5857 5860 5862
5566 5572 5578 5584 5590 5597 5605 5614 5624 5636 5644 5652 5660 5671 5680 5690 5699 5709 5716 5724 5731 5739 5746 5754 5761 5767 5773 5779 5784 5788 5794 5801 5806 5812 5817 5825 5832 5833 5839 5843 5847 5850 5853 5855 5857
5555 5558 5562 5569 5576 5582 5591 5598 5610 5620 5630 5637 5646 5659 5674 5679 5686 5697 5707 5716 5723 5732 5739 5746 5753 5759 5764 5770 5773 5783 5788 5794 5801 5806 5810 5818 5824 5828 5833 5837 5839 5843 5846 5850 5853
5546 5550 5554 5558 5563 5570 5578 5586 5598 5608 5617 5627 5638 5648 5658 5665 5675 5687 5698 5709 5717 5723 5730 5738 5746 5753 5759 5765 5770 5779 5782 5788 5794 5798 5804 5810 5815 5819 5822 5827 5832 5837 5841 5844 5848
5541 5545 5550 5554 5558 5565 5571 5576 5585 5598 5605 5614 5626 5636 5644 5652 5664 5677 5689 5702 5710 5718 5722 5729 5737 5746 5751 5757 5763 5769 5773 5780 5786 5793 5799 5805 5810 5814 5817 5823 5828 5831 5835 5840 5842
5539 5543 5547 5551 5555 5560 5566 5572 5580 5588 5597 5606 5618 5627 5635 5644 5654 5666 5681 5692 5704 5708 5714 5721 5729 5734 5741 5749 5756 5761 5767 5774 5781 5786 5792 5798 5802 5806 5813 5819 5822 5824 5827 5832 5836
5537 5542 5546 5549 5555 5559 5565 5572 5579 5585 5593 5601 5611 5619 5627 5636 5647 5656 5668 5683 5694 5701 5707 5712 5720 5727 5734 5742 5748 5755 5761 5767 5772 5778 5783 5789 5794 5799 5805 5811 5814 5818 5821 5825 5826
5537 5541 5545 5549 5553 5559 5566 5572 5577 5584 5591 5597 5604 5615 5623 5630 5642 5650 5660 5674 5683 5691 5698 5706 5712 5719 5726 5734 5741 5749 5755 5762 5766 5770 5775 5782 5788 5795 5798 5802 5806 5810 5811 5813 5816
5537 5542 5547 5550 5553 5558 5562 5570 5575 5581 5587 5593 5599 5607 5617 5626 5635 5644 5654 5661 5673 5682 5691 5699 5705 5712 5719 5726 5732 5739 5746 5753 5757 5763 5770 5777 5781 5788 5790 5794 5795 5799 5803 5807 5807
5539 5543 5547 5550 5553 5557 5563 5568 5575 5580 5587 5593 5600 5608 5616 5623 5631 5639 5648 5656 5666 5676 5681 5691 5699 5706 5712 5718 5724 5731 5737 5743 5750 5754 5764 5769 5775 5782 5782 5784 5786 5791 5794 5794 5797
5541 5545 5549 5551 5553 5558 5563 5569 5572 5576 5581 5587 5599 5605 5611 5620 5626 5634 5640 5649 5658 5665 5673 5684 5693 5698 5705 5714 5722 5727 5730 5736 5741 5747 5754 5759 5765 5772 5769 5775 5776 5780 5783 5788 5788
5543 5547 5551 5553 5555 5558 5563 5568 5573 5576 5580 5585 5593 5603 5611 5616 5621 5627 5637 5643 5651 5661 5667 5674 5683 5689 5698 5707 5715 5719 5726 5728 5734 5739 5745 5751 5756 5760 5759 5762 5767 5771 5773 5776 5778
5547 5550 5553 5555 5557 5560 5565 5568 5573 5577 5580 5585 5590 5599 5606 5612 5618 5623 5630 5638 5645 5654 5662 5668 5677 5683 5691 5699 5705 5712 5718 5722 5726 5732 5737 5743 5747 5750 5753 5754 5758 5759 5762 5765 5767
5551 5554 5556 5557 5559 5562 5565 5568 5572 5578 5581 5585 5591 5595 5603 5609 5615 5620 5628 5635 5641 5649 5655 5662 5670 5680 5685 5693 5698 5703 5709 5716 5722 5725 5730 5735 5739 5744 5744 5744 5748 5751 5753 5756 5758
5554 5556 5558 5559 5561 5562 5565 5568 5570 5576 5579 5582 5587 5593 5599 5606 5612 5618 5625 5632 5638 5644 5650 5657 5664 5671 5679 5686 5688 5691 5698 5706 5713 5721 5725 5729 5733 5734 5733 5735 5738 5742 5745 5747 5748
5557 5559 5560 5561 5561 5564 5566 5568 5571 5576 5579 5582 5586 5591 5597 5604 5610 5616 5621 5628 5634 5640 5646 5651 5657 5663 5670 5674 5679 5687 5693 5699 5705 5711 5715 5720 5723 5722 5723 5728 5730 5732 5734 5737 5737
5561 5562 5563 5563 5564 5566 5568 5569 5571 5576 5579 5581 5586 5590 5596 5602 5607 5610 5616 5623 5630 5636 5642 5647 5653 5658 5666 5672 5676 5683 5688 5691 5697 5703 5707 5710 5713 5713 5717 5718 5720 5723 5725 5725 5724
5563 5564 5565 5565 5566 5568 5570 5571 5573 5576 5581 5583 5586 5591 5596 5602 5607 5608 5612 5619 5626 5632 5638 5643 5647 5653 5656 5661 5668 5675 5680 5684 5691 5695 5699 5700 5703 5705 5709 5711 5711 5712 5714 5713 5712
5564 5565 5566 5567 5568 5569 5570 5573 5575 5576 5581 5584 5588 5592 5596 5603 5606 5609 5612 5616 5621 5627 5633 5637 5642 5647 5652 5657 5662 5667 5673 5680 5685 5689 5692 5694 5697 5701 5704 5703 5705 5706 5706 5705 5704
5565 5566 5567 5568 5569 5572 5573 5574 5576 5578 5581 5585 5587 5591 5596 5601 5604 5607 5611 5615 5619 5623 5628 5635 5640 5644 5649 5654 5659 5664 5670 5674 5678 5683 5686 5689 5693 5696 5697 5697 5697 5696 5696 5695 5694
Wind_Speed
36 38 41 42 41 41 41 42 44 46 49 48 49 48 45 44 45 46 47 44 40 38 35 32 27 29 29 32 38 52 38 32 27 27 26 25 23 17 15 15 12 10 9 6 4
37 37 40 40 40 40 40 42 44 46 48 50 50 48 42 50 42 38 45 48 45 41 36 35 29 40 32 36 39 52 43 33 34 34 31 30 25 21 20 18 15 12 10 8 5
39 40 40 42 42 42 42 42 43 46 47 50 51 51 52 52 44 41 42 45 47 44 40 35 32 31 35 33 34 46 46 36 37 36 31 27 24 24 22 20 18 14 15 11 9
45 45 46 45 45 44 44 44 44 45 49 50 52 53 54 54 53 47 42 47 46 43 49 41 36 35 33 34 33 39 43 43 36 36 33 27 27 26 23 23 19 16 15 14 13
50 50 50 50 49 48 47 47 47 46 48 52 53 53 54 52 50 49 47 46 51 42 46 44 41 45 36 35 39 37 35 44 40 41 36 32 29 32 28 23 21 18 19 18 15
55 55 54 54 54 53 51 48 48 49 49 51 55 56 54 53 51 51 50 48 47 47 50 47 45 43 44 35 32 42 43 48 43 43 41 35 33 35 30 25 24 24 21 20 17
58 58 58 58 57 56 54 52 50 51 51 52 55 58 58 55 52 48 47 52 44 48 49 55 51 44 42 42 42 39 37 48 49 51 44 39 37 36 32 27 26 26 23 22 20
64 62 61 59 59 58 57 56 54 52 52 53 56 59 59 58 60 48 43 50 53 51 44 44 47 46 42 42 40 40 40 44 51 51 49 41 37 39 33 32 29 29 27 25 24
50 56 59 60 60 60 59 57 56 53 53 56 58 60 62 60 61 65 58 52 49 55 49 45 47 46 45 49 43 37 39 43 39 43 44 44 40 42 37 36 34 32 31 30 28
27 33 40 49 53 57 57 56 55 54 54 56 59 62 63 64 65 67 71 61 59 50 50 49 43 41 42 49 55 45 43 43 41 43 43 48 47 43 40 38 39 36 34 34 31
23 26 26 27 33 41 41 48 51 51 54 55 58 64 64 68 67 67 69 66 59 56 45 47 50 47 48 45 41 43 39 40 38 50 49 46 45 48 46 43 43 36 34 35 33
20 21 20 21 22 22 24 29 36 42 46 51 55 60 63 67 69 65 69 68 64 49 50 50 49 48 45 45 52 50 48 47 43 43 51 45 49 46 47 42 40 37 35 34 33
18 18 18 17 21 22 24 25 31 28 40 46 51 54 57 61 64 64 67 63 55 54 54 51 50 47 46 43 44 45 45 42 41 41 43 46 51 54 47 42 41 38 36 37 34
18 17 17 18 20 22 23 27 28 27 29 42 52 50 55 60 56 58 61 68 57 51 56 55 58 51 50 50 46 48 42 33 40 43 42 38 60 58 44 45 43 39 40 39 38
15 14 17 15 22 25 24 28 27 26 26 37 49 52 47 51 58 46 57 77 59 51 52 47 57 53 50 53 55 53 49 41 38 31 31 40 54 50 48 47 41 42 44 45 44
17 19 13 12 18 27 25 32 26 28 26 33 40 47 47 36 35 37 44 67 73 56 54 52 44 34 42 46 52 52 51 51 40 38 41 34 39 41 39 36 36 36 42 52 50
17 18 14 12 15 28 28 27 23 29 32 27 28 29 35 35 37 41 32 42 72 75 64 61 48 40 34 33 39 45 49 48 45 47 47 44 42 36 38 37 35 35 36 37 45
20 15 14 10 13 24 28 29 28 33 39 20 26 24 29 28 30 33 33 36 41 54 58 70 56 53 45 40 34 38 43 45 48 49 50 50 53 48 44 42 39 39 39 41 40
18 14 12 10 8 16 21 28 26 24 34 30 26 25 37 31 32 35 36 34 37 47 50 54 53 50 55 50 42 39 40 41 42 44 47 47 49 49 44 43 44 44 44 45 46
16 13 10 9 9 14 20 24 28 18 25 34 28 24 24 23 33 27 35 35 37 42 38 39 42 40 35 42 44 41 39 42 43 42 41 42 43 42 41 38 36 37 39 41 40
14 11 8 7 9 12 15 19 37 19 15 22 36 27 15 21 21 27 25 28 27 34 41 41 37 41 36 37 34 34 37 41 46 44 40 38 38 37 37 38 38 39 40 42 43
11 9 7 5 6 10 9 11 37 22 21 14 27 36 28 14 16 21 27 24 26 32 24 33 36 33 36 39 39 41 41 39 41 42 42 42 41 40 41 41 43 43 42 42 41
10 8 7 7 5 9 6 8 26 23 10 15 19 34 32 28 22 22 24 31 30 34 30 27 27 28 31 35 35 36 39 41 43 43 43 41 43 42 43 42 40 40 38 36 36
9 8 8 10 10 9 8 8 13 25 13 18 22 27 30 28 26 23 30 35 37 36 31 31 29 31 31 28 29 29 35 39 41 39 38 37 33 34 35 36 33 30 30 29 28
6 5 6 8 10 10 9 7 5 9 15 17 24 23 26 25 17 16 26 29 35 33 34 33 31 29 32 34 34 31 31 29 31 31 30 27 28 32 32 29 30 30 26 27 32
5 4 4 3 4 9 8 10 7 6 5 14 23 27 27 30 19 21 20 23 29 32 29 29 29 28 28 31 33 32 30 29 29 28 27 26 25 27 29 31 28 28 31 35 38
7 6 6 5 5 5 6 6 8 6 5 4 6 15 19 24 22 20 26 24 26 29 32 30 27 29 27 24 25 27 27 27 26 25 25 26 26 29 26 27 29 32 36 41 46
Wind_Direction
241 242 242 242 241 240 234 229 228 227 231 232 232 231 229 227 224 223 220 220 222 220 226 235 237 214 217 224 214 201 202 209 214 224 223 211 210 211 218 228 203 207 211 207 185
244 243 243 241 240 239 237 231 227 226 228 230 230 230 229 219 207 219 220 219 220 221 221 227 228 214 222 222 231 210 201 206 215 221 222 218 212 209 216 226 223 211 218 225 227
248 247 245 243 241 239 239 235 230 227 226 227 229 228 220 216 226 232 225 222 224 218 221 219 221 220 230 231 223 215 206 207 217 225 226 225 225 218 219 225 227 218 226 231 237
250 249 248 245 243 240 239 238 234 230 227 227 226 228 228 227 234 237 231 229 224 221 222 222 218 220 233 224 223 224 215 208 219 229 226 224 227 229 226 233 238 227 231 233 243
252 250 249 248 245 243 239 237 235 232 229 227 228 227 230 228 227 230 229 230 227 210 219 222 217 211 225 227 224 220 231 212 217 223 226 227 222 230 230 233 233 225 235 241 243
252 251 250 247 246 244 240 238 236 233 231 228 226 227 226 230 226 229 228 223 230 221 221 224 221 217 228 219 226 236 236 218 217 219 225 223 227 234 235 236 231 233 235 244 248
253 251 249 248 245 244 242 240 237 234 232 230 226 226 225 224 220 220 218 223 226 225 227 227 229 220 219 226 227 221 232 216 217 219 219 218 225 232 233 229 231 240 243 243 247
255 255 252 250 247 244 242 240 237 235 232 232 229 224 224 223 220 211 211 216 222 225 217 219 221 220 221 219 229 228 235 228 230 230 213 221 224 231 231 233 232 241 245 245 244
256 254 253 252 250 246 243 239 235 233 231 230 229 224 223 222 221 215 218 221 221 216 217 215 215 223 224 224 230 218 226 221 223 215 212 218 219 228 231 229 234 241 244 243 241
242 234 234 241 245 247 244 243 235 231 229 227 226 227 219 221 222 217 220 224 229 223 212 221 223 220 220 214 219 219 217 220 225 223 220 223 221 226 229 231 237 239 243 245 248
246 230 225 224 231 238 238 241 239 233 228 224 225 225 221 221 222 218 219 221 229 230 235 219 215 211 213 218 215 214 220 226 232 231 224 226 223 223 226 229 237 246 249 249 251
229 218 220 220 220 216 213 219 224 224 220 219 212 219 221 220 221 218 217 221 227 228 232 218 215 213 211 217 223 226 222 227 233 232 227 229 232 236 239 241 241 247 253 249 252
212 209 212 213 207 201 199 192 199 198 209 209 206 209 213 217 219 220 215 218 216 211 217 228 226 230 223 223 220 227 229 230 228 229 229 237 239 240 236 242 243 251 246 247 251
199 197 208 192 196 190 182 183 183 193 196 201 197 204 212 215 216 218 212 201 204 202 218 228 236 237 238 232 230 230 228 230 226 227 230 231 233 235 231 239 238 240 246 250 251
186 194 167 174 180 183 176 180 178 171 204 201 201 204 206 217 218 210 208 202 201 204 206 216 229 231 229 230 231 233 232 231 230 226 223 227 231 230 241 238 231 234 242 251 249
172 167 159 173 179 184 181 184 185 195 181 197 198 203 210 211 211 205 217 214 211 203 210 204 211 207 220 223 225 225 228 234 228 230 235 227 225 229 233 232 229 237 246 250 249
163 150 168 181 173 179 186 188 176 182 171 174 184 202 209 218 214 214 216 215 216 217 208 205 207 209 215 220 228 227 226 225 227 234 244 244 236 232 234 238 243 245 250 244 244
149 159 162 182 168 180 179 188 172 184 193 148 184 190 191 202 206 213 219 218 213 218 228 215 225 226 224 230 231 237 233 231 232 235 238 241 249 245 247 250 250 257 260 257 246
153 159 162 166 172 169 179 184 190 204 205 188 162 170 184 191 185 190 188 187 208 219 225 230 232 234 237 239 234 232 237 236 233 235 237 239 244 248 246 247 250 250 247 247 251
153 151 157 155 177 167 186 184 172 196 217 214 203 178 200 198 204 180 186 181 187 199 212 222 222 230 231 231 235 238 235 233 238 235 236 237 238 238 238 239 239 242 244 248 250
144 142 149 160 179 181 177 189 188 172 180 208 217 208 175 187 223 213 202 193 192 196 195 210 215 221 223 226 229 231 231 231 234 235 235 238 241 238 241 243 241 244 247 250 255
137 130 121 146 165 183 191 208 198 158 137 146 205 220 219 198 212 224 226 216 208 195 192 200 210 215 224 223 224 230 231 234 234 237 240 242 245 246 243 245 249 252 253 256 259
124 118 106 91 134 159 165 204 212 195 158 157 187 216 219 220 226 228 213 209 210 209 215 209 208 210 220 219 220 224 228 233 236 234 234 235 241 244 247 250 255 259 262 264 264
123 115 104 83 84 149 140 140 219 209 186 163 191 207 211 214 232 234 217 216 205 209 219 223 223 228 234 233 236 231 227 227 230 236 233 235 239 246 249 251 255 263 266 269 276
129 117 101 69 85 95 127 131 155 237 207 181 184 183 203 208 199 203 223 214 216 223 219 217 221 227 225 219 215 217 224 224 222 226 231 232 239 245 252 262 264 269 277 280 285
164 161 142 109 79 94 97 118 130 119 255 181 174 175 180 190 166 178 177 202 221 215 216 209 214 219 218 216 211 208 210 214 219 222 223 231 237 251 248 252 262 268 273 277 281
130 135 148 154 142 120 114 111 116 126 139 197 256 223 179 174 167 173 176 178 182 193 194 199 205 210 220 216 214 213 213 214 216 219 223 226 227 240 254 260 264 270 276 282 287